Time,TemperatureF,DewpointF,PressureIn,WindDirection,WindDirectionDegrees,WindSpeedMPH,WindSpeedGustMPH,Humidity,HourlyPrecipIn,Conditions,Clouds,dailyrainin,SoftwareType,DateUTC
2013-11-25 00:00:00,18.7,11.2,30.47,SE,142,3.0,5.0,72,0.00,,,0.00,Wunderground v.1.15,2013-11-25 06:00:00,
2013-11-25 00:05:00,18.6,11.4,30.47,SSE,158,2.0,5.0,73,0.00,,,0.00,Wunderground v.1.15,2013-11-25 06:05:00,
2013-11-25 00:15:00,18.6,11.4,30.46,South,187,1.0,4.0,73,0.00,,,0.00,Wunderground v.1.15,2013-11-25 06:15:00,
2013-11-25 00:20:00,18.7,11.5,30.46,South,190,1.0,4.0,73,0.00,,,0.00,Wunderground v.1.15,2013-11-25 06:20:00,
2013-11-25 00:30:00,18.8,11.6,30.45,SE,130,1.0,4.0,73,0.00,,,0.00,Wunderground v.1.15,2013-11-25 06:30:00,
2013-11-25 00:35:00,19.0,11.8,30.44,South,178,1.0,4.0,73,0.00,,,0.00,Wunderground v.1.15,2013-11-25 06:35:00,
2013-11-25 00:40:00,19.1,11.9,30.44,SSE,161,2.0,2.0,73,0.00,,,0.00,Wunderground v.1.15,2013-11-25 06:40:00,
2013-11-25 00:50:00,19.3,12.1,30.44,South,188,2.0,2.0,73,0.00,,,0.00,Wunderground v.1.15,2013-11-25 06:50:00,
2013-11-25 00:55:00,19.4,12.2,30.44,WSW,258,1.0,2.0,73,0.00,,,0.00,Wunderground v.1.15,2013-11-25 06:55:00,
2013-11-25 01:00:00,19.5,12.3,30.43,SSW,192,2.0,5.0,73,0.00,,,0.00,Wunderground v.1.15,2013-11-25 07:00:00,
2013-11-25 01:05:00,19.7,12.4,30.43,South,177,2.0,5.0,73,0.00,,,0.00,Wunderground v.1.15,2013-11-25 07:05:00,
2013-11-25 01:15:00,19.7,12.4,30.42,SSE,159,2.0,4.0,73,0.00,,,0.00,Wunderground v.1.15,2013-11-25 07:15:00,
2013-11-25 01:20:00,19.8,12.5,30.42,SSE,167,2.0,2.0,73,0.00,,,0.00,Wunderground v.1.15,2013-11-25 07:20:00,
2013-11-25 01:30:00,20.0,12.4,30.43,ESE,114,3.0,3.0,72,0.00,,,0.00,Wunderground v.1.15,2013-11-25 07:30:00,
2013-11-25 01:35:00,20.1,12.5,30.42,SSE,148,2.0,3.0,72,0.00,,,0.00,Wunderground v.1.15,2013-11-25 07:35:00,
2013-11-25 01:40:00,20.2,12.6,30.42,SSE,159,1.0,1.0,72,0.00,,,0.00,Wunderground v.1.15,2013-11-25 07:40:00,
2013-11-25 01:45:00,20.3,12.7,30.42,SW,217,1.0,1.0,72,0.00,,,0.00,Wunderground v.1.15,2013-11-25 07:45:00,
2013-11-25 01:50:00,20.4,12.5,30.42,SSW,194,1.0,2.0,71,0.00,,,0.00,Wunderground v.1.15,2013-11-25 07:50:00,
2013-11-25 02:00:00,20.6,12.4,30.42,SSE,159,2.0,2.0,70,0.00,,,0.00,Wunderground v.1.15,2013-11-25 08:00:00,
2013-11-25 02:05:00,20.7,12.5,30.42,SE,144,2.0,2.0,70,0.00,,,0.00,Wunderground v.1.15,2013-11-25 08:05:00,
2013-11-25 02:15:00,20.9,12.6,30.42,SE,145,2.0,4.0,70,0.00,,,0.00,Wunderground v.1.15,2013-11-25 08:15:00,
2013-11-25 02:20:00,21.0,12.4,30.42,SSW,203,2.0,2.0,69,0.00,,,0.00,Wunderground v.1.15,2013-11-25 08:20:00,
2013-11-25 02:25:00,21.0,12.4,30.41,SSW,206,2.0,2.0,69,0.00,,,0.00,Wunderground v.1.15,2013-11-25 08:25:00,
2013-11-25 02:35:00,21.1,12.5,30.41,SE,141,2.0,3.0,69,0.00,,,0.00,Wunderground v.1.15,2013-11-25 08:35:00,
2013-11-25 02:40:00,21.1,12.8,30.41,SSE,159,2.0,2.0,70,0.00,,,0.00,Wunderground v.1.15,2013-11-25 08:40:00,
2013-11-25 02:45:00,21.1,12.8,30.41,SE,140,2.0,2.0,70,0.00,,,0.00,Wunderground v.1.15,2013-11-25 08:45:00,
2013-11-25 02:50:00,21.2,12.9,30.40,SSW,197,2.0,2.0,70,0.00,,,0.00,Wunderground v.1.15,2013-11-25 08:50:00,
2013-11-25 02:55:00,21.2,12.9,30.40,SW,222,3.0,4.0,70,0.00,,,0.00,Wunderground v.1.15,2013-11-25 08:55:00,
2013-11-25 03:00:00,21.2,12.9,30.40,SSE,163,3.0,4.0,70,0.00,,,0.00,Wunderground v.1.15,2013-11-25 09:00:00,
2013-11-25 03:05:00,21.3,13.0,30.39,SSW,200,3.0,4.0,70,0.00,,,0.00,Wunderground v.1.15,2013-11-25 09:05:00,
2013-11-25 03:15:00,21.4,13.1,30.38,South,171,2.0,2.0,70,0.00,,,0.00,Wunderground v.1.15,2013-11-25 09:15:00,
2013-11-25 03:20:00,21.4,13.5,30.38,SE,138,2.0,2.0,71,0.00,,,0.00,Wunderground v.1.15,2013-11-25 09:20:00,
2013-11-25 03:25:00,21.4,13.5,30.38,SSE,151,2.0,2.0,71,0.00,,,0.00,Wunderground v.1.15,2013-11-25 09:25:00,
2013-11-25 03:30:00,21.5,13.5,30.37,SE,145,2.0,2.0,71,0.00,,,0.00,Wunderground v.1.15,2013-11-25 09:30:00,
2013-11-25 03:35:00,21.5,13.5,30.37,SE,137,2.0,4.0,71,0.00,,,0.00,Wunderground v.1.15,2013-11-25 09:35:00,
2013-11-25 03:45:00,21.5,13.5,30.37,South,189,1.0,2.0,71,0.00,,,0.00,Wunderground v.1.15,2013-11-25 09:45:00,
2013-11-25 03:50:00,21.5,13.5,30.37,South,185,1.0,3.0,71,0.00,,,0.00,Wunderground v.1.15,2013-11-25 09:50:00,
2013-11-25 03:55:00,21.5,13.5,30.37,South,180,2.0,3.0,71,0.00,,,0.00,Wunderground v.1.15,2013-11-25 09:55:00,
2013-11-25 04:00:00,21.6,13.6,30.36,SSE,153,3.0,3.0,71,0.00,,,0.00,Wunderground v.1.15,2013-11-25 10:00:00,
2013-11-25 04:05:00,21.6,14.0,30.36,SSE,150,2.0,3.0,72,0.00,,,0.00,Wunderground v.1.15,2013-11-25 10:05:00,
2013-11-25 04:15:00,21.7,14.1,30.35,SSE,166,3.0,3.0,72,0.00,,,0.00,Wunderground v.1.15,2013-11-25 10:15:00,
2013-11-25 04:20:00,21.8,14.2,30.35,SE,137,2.0,2.0,72,0.00,,,0.00,Wunderground v.1.15,2013-11-25 10:20:00,
2013-11-25 04:30:00,22.0,14.3,30.34,SSE,150,2.0,2.0,72,0.00,,,0.00,Wunderground v.1.15,2013-11-25 10:30:00,
2013-11-25 04:35:00,22.2,14.5,30.35,South,173,1.0,2.0,72,0.00,,,0.00,Wunderground v.1.15,2013-11-25 10:35:00,
2013-11-25 04:40:00,22.3,14.6,30.35,SW,234,1.0,3.0,72,0.00,,,0.00,Wunderground v.1.15,2013-11-25 10:40:00,
2013-11-25 04:45:00,22.4,14.7,30.35,South,186,1.0,3.0,72,0.00,,,0.00,Wunderground v.1.15,2013-11-25 10:45:00,
2013-11-25 04:55:00,22.1,16.3,30.34,South,178,2.0,6.0,78,0.00,,,0.00,Wunderground v.1.15,2013-11-25 10:55:00,
2013-11-25 05:00:00,22.0,17.1,30.33,SSE,153,2.0,4.0,81,0.00,,,0.00,Wunderground v.1.15,2013-11-25 11:00:00,
2013-11-25 05:05:00,22.0,17.3,30.33,South,169,1.0,4.0,82,0.00,,,0.00,Wunderground v.1.15,2013-11-25 11:05:00,
2013-11-25 05:15:00,21.9,17.8,30.33,SSE,152,1.0,2.0,84,0.00,,,0.00,Wunderground v.1.15,2013-11-25 11:15:00,
2013-11-25 05:20:00,21.8,18.0,30.32,SSE,152,1.0,1.0,85,0.00,,,0.00,Wunderground v.1.15,2013-11-25 11:20:00,
2013-11-25 05:25:00,21.9,18.1,30.32,South,175,1.0,1.0,85,0.00,,,0.00,Wunderground v.1.15,2013-11-25 11:25:00,
2013-11-25 05:35:00,21.9,18.4,30.31,SSE,160,1.0,5.0,86,0.00,,,0.00,Wunderground v.1.15,2013-11-25 11:35:00,
2013-11-25 05:40:00,21.8,18.3,30.31,SSW,193,1.0,1.0,86,0.00,,,0.00,Wunderground v.1.15,2013-11-25 11:40:00,
2013-11-25 05:45:00,21.8,18.3,30.31,SSW,210,1.0,2.0,86,0.00,,,0.00,Wunderground v.1.15,2013-11-25 11:45:00,
2013-11-25 05:55:00,21.8,18.3,30.31,SSW,203,0.0,1.0,86,0.00,,,0.00,Wunderground v.1.15,2013-11-25 11:55:00,
2013-11-25 06:00:00,21.8,18.3,30.31,SSW,202,0.0,0.0,86,0.00,,,0.00,Wunderground v.1.15,2013-11-25 12:00:00,
2013-11-25 06:05:00,21.9,18.4,30.30,SSW,202,0.0,0.0,86,0.00,,,0.00,Wunderground v.1.15,2013-11-25 12:05:00,
2013-11-25 06:15:00,22.1,18.6,30.30,South,169,0.0,2.0,86,0.00,,,0.00,Wunderground v.1.15,2013-11-25 12:15:00,
2013-11-25 06:20:00,22.2,18.7,30.30,SSW,194,0.0,0.0,86,0.00,,,0.00,Wunderground v.1.15,2013-11-25 12:20:00,
2013-11-25 06:25:00,22.4,18.8,30.30,SSE,151,0.0,2.0,86,0.00,,,0.00,Wunderground v.1.15,2013-11-25 12:25:00,
2013-11-25 06:30:00,22.5,18.9,30.30,SSE,150,1.0,4.0,86,0.00,,,0.00,Wunderground v.1.15,2013-11-25 12:30:00,
2013-11-25 06:40:00,23.3,19.5,30.29,SE,130,2.0,2.0,85,0.00,,,0.00,Wunderground v.1.15,2013-11-25 12:40:00,
2013-11-25 06:45:00,23.6,19.5,30.29,SE,146,1.0,2.0,84,0.00,,,0.00,Wunderground v.1.15,2013-11-25 12:45:00,
2013-11-25 06:50:00,23.8,19.4,30.30,South,180,0.0,1.0,83,0.00,,,0.00,Wunderground v.1.15,2013-11-25 12:50:00,
2013-11-25 06:55:00,23.9,19.2,30.30,SSW,198,1.0,4.0,82,0.00,,,0.00,Wunderground v.1.15,2013-11-25 12:55:00,
2013-11-25 07:05:00,24.0,19.0,30.30,SSW,197,0.0,1.0,81,0.00,,,0.00,Wunderground v.1.15,2013-11-25 13:05:00,
2013-11-25 07:15:00,24.2,18.9,30.30,SSW,199,0.0,0.0,80,0.00,,,0.00,Wunderground v.1.15,2013-11-25 13:15:00,
2013-11-25 07:20:00,24.3,18.7,30.29,WSW,242,0.0,0.0,79,0.00,,,0.00,Wunderground v.1.15,2013-11-25 13:20:00,
2013-11-25 07:30:00,24.7,18.8,30.29,East,98,2.0,2.0,78,0.00,,,0.00,Wunderground v.1.15,2013-11-25 13:30:00,
2013-11-25 07:35:00,24.8,18.6,30.29,South,172,2.0,5.0,77,0.00,,,0.00,Wunderground v.1.15,2013-11-25 13:35:00,
2013-11-25 07:40:00,25.0,18.8,30.29,SSW,197,2.0,2.0,77,0.00,,,0.00,Wunderground v.1.15,2013-11-25 13:40:00,
2013-11-25 07:45:00,24.9,18.7,30.29,SW,227,2.0,5.0,77,0.00,,,0.00,Wunderground v.1.15,2013-11-25 13:45:00,
2013-11-25 07:50:00,24.9,19.0,30.29,WSW,244,2.0,2.0,78,0.00,,,0.00,Wunderground v.1.15,2013-11-25 13:50:00,
2013-11-25 08:00:00,25.1,19.2,30.29,SSW,202,1.0,5.0,78,0.00,,,0.00,Wunderground v.1.15,2013-11-25 14:00:00,
2013-11-25 08:05:00,25.2,19.0,30.29,SSW,209,2.0,5.0,77,0.00,,,0.00,Wunderground v.1.15,2013-11-25 14:05:00,
2013-11-25 08:15:00,25.4,19.2,30.29,South,191,2.0,11.0,77,0.00,,,0.00,Wunderground v.1.15,2013-11-25 14:15:00,
2013-11-25 08:20:00,25.5,19.3,30.29,SSW,213,3.0,6.0,77,0.00,,,0.00,Wunderground v.1.15,2013-11-25 14:20:00,
2013-11-25 08:25:00,25.6,19.4,30.29,SW,225,4.0,6.0,77,0.00,,,0.00,Wunderground v.1.15,2013-11-25 14:25:00,
2013-11-25 08:35:00,25.7,19.8,30.29,West,264,2.0,3.0,78,0.00,,,0.00,Wunderground v.1.15,2013-11-25 14:35:00,
2013-11-25 08:40:00,25.7,20.1,30.29,SW,217,2.0,3.0,79,0.00,,,0.00,Wunderground v.1.15,2013-11-25 14:40:00,
2013-11-25 08:45:00,25.6,20.3,30.29,SSW,200,3.0,3.0,80,0.00,,,0.00,Wunderground v.1.15,2013-11-25 14:45:00,
2013-11-25 08:50:00,25.5,20.5,30.28,West,270,4.0,4.0,81,0.00,,,0.00,Wunderground v.1.15,2013-11-25 14:50:00,
2013-11-25 09:00:00,25.3,20.9,30.28,SW,218,2.0,3.0,83,0.00,,,0.00,Wunderground v.1.15,2013-11-25 15:00:00,
2013-11-25 09:05:00,25.3,20.9,30.28,SW,216,2.0,3.0,83,0.00,,,0.00,Wunderground v.1.15,2013-11-25 15:05:00,
2013-11-25 09:15:00,25.3,21.1,30.28,West,266,4.0,5.0,84,0.00,,,0.00,Wunderground v.1.15,2013-11-25 15:15:00,
2013-11-25 09:20:00,25.2,21.0,30.28,West,276,4.0,4.0,84,0.00,,,0.00,Wunderground v.1.15,2013-11-25 15:20:00,
2013-11-25 09:25:00,25.1,20.9,30.28,WSW,248,3.0,6.0,84,0.00,,,0.00,Wunderground v.1.15,2013-11-25 15:25:00,
2013-11-25 09:30:00,25.0,21.1,30.28,WNW,284,3.0,3.0,85,0.00,,,0.00,Wunderground v.1.15,2013-11-25 15:30:00,
2013-11-25 09:40:00,24.9,21.3,30.28,WNW,296,3.0,9.0,86,0.00,,,0.00,Wunderground v.1.15,2013-11-25 15:40:00,
2013-11-25 09:45:00,25.0,21.4,30.27,West,279,3.0,9.0,86,0.00,,,0.00,Wunderground v.1.15,2013-11-25 15:45:00,
2013-11-25 09:50:00,25.0,21.4,30.28,West,280,3.0,6.0,86,0.00,,,0.00,Wunderground v.1.15,2013-11-25 15:50:00,
2013-11-25 09:55:00,25.1,21.5,30.28,South,182,2.0,6.0,86,0.00,,,0.00,Wunderground v.1.15,2013-11-25 15:55:00,
2013-11-25 10:05:00,25.3,21.7,30.28,SSW,208,3.0,7.0,86,0.00,,,0.00,Wunderground v.1.15,2013-11-25 16:05:00,
2013-11-25 10:15:00,25.0,21.4,30.27,SSW,196,2.0,3.0,86,0.00,,,0.00,Wunderground v.1.15,2013-11-25 16:15:00,
2013-11-25 10:20:00,25.0,21.7,30.27,SW,233,2.0,2.0,87,0.00,,,0.00,Wunderground v.1.15,2013-11-25 16:20:00,
2013-11-25 10:25:00,24.9,21.6,30.27,SW,223,2.0,2.0,87,0.00,,,0.00,Wunderground v.1.15,2013-11-25 16:25:00,
2013-11-25 10:30:00,24.9,21.6,30.27,WSW,254,2.0,3.0,87,0.00,,,0.00,Wunderground v.1.15,2013-11-25 16:30:00,
2013-11-25 10:35:00,24.8,21.5,30.27,SSW,209,3.0,3.0,87,0.00,,,0.00,Wunderground v.1.15,2013-11-25 16:35:00,
2013-11-25 10:45:00,24.8,21.2,30.26,West,273,2.0,3.0,86,0.00,,,0.00,Wunderground v.1.15,2013-11-25 16:45:00,
2013-11-25 10:50:00,24.8,21.2,30.26,WSW,254,2.0,2.0,86,0.00,,,0.00,Wunderground v.1.15,2013-11-25 16:50:00,
2013-11-25 11:00:00,24.9,21.3,30.26,WSW,245,2.0,2.0,86,0.00,,,0.00,Wunderground v.1.15,2013-11-25 17:00:00,
2013-11-25 11:05:00,24.9,21.3,30.25,West,261,1.0,2.0,86,0.00,,,0.00,Wunderground v.1.15,2013-11-25 17:05:00,
2013-11-25 11:15:00,24.9,21.3,30.25,WSW,248,2.0,3.0,86,0.00,,,0.00,Wunderground v.1.15,2013-11-25 17:15:00,
2013-11-25 11:20:00,24.9,21.3,30.24,WNW,287,2.0,2.0,86,0.00,,,0.00,Wunderground v.1.15,2013-11-25 17:20:00,
2013-11-25 11:25:00,25.0,21.4,30.24,WNW,288,2.0,4.0,86,0.00,,,0.00,Wunderground v.1.15,2013-11-25 17:25:00,
2013-11-25 11:35:00,25.2,21.6,30.23,SW,217,2.0,2.0,86,0.00,,,0.00,Wunderground v.1.15,2013-11-25 17:35:00,
2013-11-25 11:40:00,25.3,21.4,30.23,West,281,1.0,6.0,85,0.00,,,0.00,Wunderground v.1.15,2013-11-25 17:40:00,
2013-11-25 11:45:00,25.3,21.4,30.23,SSW,207,2.0,6.0,85,0.00,,,0.00,Wunderground v.1.15,2013-11-25 17:45:00,
2013-11-25 11:55:00,25.4,21.5,30.22,SW,223,4.0,4.0,85,0.00,,,0.00,Wunderground v.1.15,2013-11-25 17:55:00,
2013-11-25 12:00:00,25.6,21.7,30.23,WSW,254,3.0,3.0,85,0.00,,,0.00,Wunderground v.1.15,2013-11-25 18:00:00,
2013-11-25 12:05:00,25.7,21.8,30.22,South,172,3.0,4.0,85,0.00,,,0.00,Wunderground v.1.15,2013-11-25 18:05:00,
2013-11-25 12:15:00,25.7,21.8,30.21,West,267,3.0,4.0,85,0.00,,,0.00,Wunderground v.1.15,2013-11-25 18:15:00,
2013-11-25 12:20:00,25.8,21.9,30.21,South,173,3.0,3.0,85,0.00,,,0.00,Wunderground v.1.15,2013-11-25 18:20:00,
2013-11-25 12:30:00,26.0,22.1,30.21,WSW,256,2.0,2.0,85,0.00,,,0.00,Wunderground v.1.15,2013-11-25 18:30:00,
2013-11-25 12:35:00,26.0,22.1,30.21,West,276,2.0,2.0,85,0.00,,,0.00,Wunderground v.1.15,2013-11-25 18:35:00,
2013-11-25 12:40:00,26.0,22.1,30.21,WNW,282,3.0,3.0,85,0.00,,,0.00,Wunderground v.1.15,2013-11-25 18:40:00,
2013-11-25 12:45:00,26.0,22.1,30.22,WSW,254,4.0,8.0,85,0.00,,,0.00,Wunderground v.1.15,2013-11-25 18:45:00,
2013-11-25 12:55:00,26.2,22.3,30.22,WSW,244,4.0,4.0,85,0.00,,,0.00,Wunderground v.1.15,2013-11-25 18:55:00,
2013-11-25 13:00:00,26.2,22.3,30.22,WSW,253,3.0,3.0,85,0.00,,,0.00,Wunderground v.1.15,2013-11-25 19:00:00,
2013-11-25 13:05:00,26.2,22.3,30.21,West,277,3.0,3.0,85,0.00,,,0.00,Wunderground v.1.15,2013-11-25 19:05:00,
2013-11-25 13:15:00,26.6,22.7,30.20,SSW,211,2.0,5.0,85,0.00,,,0.00,Wunderground v.1.15,2013-11-25 19:15:00,
2013-11-25 13:25:00,27.0,23.1,30.20,WSW,251,4.0,4.0,85,0.00,,,0.00,Wunderground v.1.15,2013-11-25 19:25:00,
2013-11-25 13:30:00,27.3,23.4,30.20,SSW,199,4.0,4.0,85,0.00,,,0.00,Wunderground v.1.15,2013-11-25 19:30:00,
2013-11-25 13:35:00,27.4,23.8,30.20,WNW,287,4.0,5.0,86,0.00,,,0.00,Wunderground v.1.15,2013-11-25 19:35:00,
2013-11-25 13:40:00,27.6,24.0,30.20,SW,219,4.0,5.0,86,0.00,,,0.00,Wunderground v.1.15,2013-11-25 19:40:00,
2013-11-25 13:45:00,27.8,23.9,30.20,South,189,3.0,5.0,85,0.00,,,0.00,Wunderground v.1.15,2013-11-25 19:45:00,
2013-11-25 13:50:00,27.9,24.0,30.20,WSW,254,3.0,8.0,85,0.00,,,0.00,Wunderground v.1.15,2013-11-25 19:50:00,
2013-11-25 14:00:00,28.4,24.5,30.20,West,259,3.0,3.0,85,0.00,,,0.00,Wunderground v.1.15,2013-11-25 20:00:00,
2013-11-25 14:05:00,28.8,24.9,30.19,WSW,244,3.0,3.0,85,0.00,,,0.00,Wunderground v.1.15,2013-11-25 20:05:00,
2013-11-25 14:20:00,29.6,25.6,30.20,SW,234,3.0,3.0,85,0.00,,,0.00,Wunderground v.1.15,2013-11-25 20:20:00,
2013-11-25 14:25:00,29.8,25.6,30.20,SSW,196,3.0,3.0,84,0.00,,,0.00,Wunderground v.1.15,2013-11-25 20:25:00,
2013-11-25 14:30:00,30.0,25.8,30.20,West,265,3.0,3.0,84,0.00,,,0.00,Wunderground v.1.15,2013-11-25 20:30:00,
2013-11-25 14:35:00,30.2,25.9,30.20,WSW,245,2.0,8.0,84,0.00,,,0.01,Wunderground v.1.15,2013-11-25 20:35:00,
2013-11-25 14:40:00,30.3,26.0,30.20,West,275,3.0,3.0,84,0.00,,,0.01,Wunderground v.1.15,2013-11-25 20:40:00,
2013-11-25 14:45:00,30.4,25.9,30.20,WSW,253,3.0,6.0,83,0.00,,,0.01,Wunderground v.1.15,2013-11-25 20:45:00,
2013-11-25 14:55:00,30.7,26.1,30.20,SW,228,3.0,6.0,83,0.00,,,0.01,Wunderground v.1.15,2013-11-25 20:55:00,
2013-11-25 15:00:00,30.8,26.2,30.20,West,259,2.0,2.0,83,0.00,,,0.01,Wunderground v.1.15,2013-11-25 21:00:00,
2013-11-25 15:05:00,30.8,26.2,30.20,SW,234,2.0,2.0,83,0.00,,,0.01,Wunderground v.1.15,2013-11-25 21:05:00,
2013-11-25 15:15:00,31.0,26.4,30.20,West,273,1.0,2.0,83,0.00,,,0.01,Wunderground v.1.15,2013-11-25 21:15:00,
2013-11-25 15:20:00,31.1,26.5,30.20,WSW,244,1.0,1.0,83,0.00,,,0.01,Wunderground v.1.15,2013-11-25 21:20:00,
2013-11-25 15:25:00,31.1,26.5,30.21,WSW,253,1.0,2.0,83,0.00,,,0.01,Wunderground v.1.15,2013-11-25 21:25:00,
2013-11-25 15:35:00,31.2,26.6,30.21,NW,319,0.0,0.0,83,0.00,,,0.01,Wunderground v.1.15,2013-11-25 21:35:00,
2013-11-25 15:40:00,31.3,26.4,30.21,WNW,303,1.0,1.0,82,0.00,,,0.01,Wunderground v.1.15,2013-11-25 21:40:00,
2013-11-25 15:45:00,31.4,26.5,30.21,West,265,1.0,1.0,82,0.00,,,0.01,Wunderground v.1.15,2013-11-25 21:45:00,
2013-11-25 15:50:00,31.4,26.5,30.21,West,261,1.0,1.0,82,0.00,,,0.01,Wunderground v.1.15,2013-11-25 21:50:00,
2013-11-25 15:55:00,31.5,26.3,30.21,West,281,1.0,1.0,81,0.00,,,0.01,Wunderground v.1.15,2013-11-25 21:55:00,
2013-11-25 16:05:00,31.5,26.3,30.21,WNW,284,1.0,3.0,81,0.00,,,0.01,Wunderground v.1.15,2013-11-25 22:05:00,
2013-11-25 16:15:00,31.4,26.2,30.21,West,273,1.0,1.0,81,0.00,,,0.01,Wunderground v.1.15,2013-11-25 22:15:00,
2013-11-25 16:20:00,31.4,26.2,30.21,West,267,1.0,1.0,81,0.00,,,0.01,Wunderground v.1.15,2013-11-25 22:20:00,
2013-11-25 16:25:00,31.4,26.2,30.21,WNW,283,1.0,1.0,81,0.00,,,0.01,Wunderground v.1.15,2013-11-25 22:25:00,
2013-11-25 16:30:00,31.4,26.2,30.21,West,271,1.0,1.0,81,0.00,,,0.01,Wunderground v.1.15,2013-11-25 22:30:00,
2013-11-25 16:35:00,31.4,26.2,30.21,West,280,1.0,6.0,81,0.00,,,0.01,Wunderground v.1.15,2013-11-25 22:35:00,
2013-11-25 16:40:00,31.4,26.2,30.21,West,279,0.0,0.0,81,0.00,,,0.01,Wunderground v.1.15,2013-11-25 22:40:00,
2013-11-25 16:50:00,31.3,26.1,30.21,WNW,287,0.0,0.0,81,0.00,,,0.01,Wunderground v.1.15,2013-11-25 22:50:00,
2013-11-25 16:55:00,31.3,26.4,30.21,WNW,287,0.0,0.0,82,0.00,,,0.01,Wunderground v.1.15,2013-11-25 22:55:00,
2013-11-25 17:00:00,31.3,26.4,30.21,WSW,247,1.0,1.0,82,0.00,,,0.01,Wunderground v.1.15,2013-11-25 23:00:00,
2013-11-25 17:05:00,31.3,26.4,30.21,WSW,252,1.0,1.0,82,0.00,,,0.01,Wunderground v.1.15,2013-11-25 23:05:00,
2013-11-25 17:15:00,31.4,26.5,30.22,SW,236,1.0,1.0,82,0.00,,,0.01,Wunderground v.1.15,2013-11-25 23:15:00,
2013-11-25 17:20:00,31.4,26.5,30.22,WSW,237,1.0,1.0,82,0.00,,,0.01,Wunderground v.1.15,2013-11-25 23:20:00,
2013-11-25 17:30:00,31.3,26.4,30.23,WSW,252,0.0,0.0,82,0.00,,,0.01,Wunderground v.1.15,2013-11-25 23:30:00,
2013-11-25 17:35:00,31.3,26.4,30.23,WSW,254,0.0,0.0,82,0.00,,,0.01,Wunderground v.1.15,2013-11-25 23:35:00,
2013-11-25 17:40:00,31.3,26.4,30.23,West,267,0.0,0.0,82,0.00,,,0.01,Wunderground v.1.15,2013-11-25 23:40:00,
2013-11-25 17:45:00,31.4,26.5,30.23,West,260,1.0,1.0,82,0.00,,,0.01,Wunderground v.1.15,2013-11-25 23:45:00,
2013-11-25 17:50:00,31.4,26.5,30.23,WNW,284,0.0,0.0,82,0.00,,,0.01,Wunderground v.1.15,2013-11-25 23:50:00,
2013-11-25 17:55:00,31.4,26.5,30.23,West,265,1.0,1.0,82,0.00,,,0.01,Wunderground v.1.15,2013-11-25 23:55:00,
2013-11-25 18:05:00,31.4,26.5,30.23,WSW,257,1.0,1.0,82,0.00,,,0.01,Wunderground v.1.15,2013-11-26 00:05:00,
2013-11-25 18:15:00,31.4,26.5,30.23,SW,219,1.0,1.0,82,0.00,,,0.01,Wunderground v.1.15,2013-11-26 00:15:00,
2013-11-25 18:20:00,31.4,26.8,30.24,WSW,242,1.0,1.0,83,0.00,,,0.01,Wunderground v.1.15,2013-11-26 00:20:00,
2013-11-25 18:25:00,31.4,26.8,30.24,WSW,239,0.0,1.0,83,0.00,,,0.01,Wunderground v.1.15,2013-11-26 00:25:00,
2013-11-25 18:30:00,31.4,26.8,30.24,WSW,244,0.0,0.0,83,0.00,,,0.01,Wunderground v.1.15,2013-11-26 00:30:00,
2013-11-25 18:40:00,31.3,26.7,30.23,WSW,244,0.0,0.0,83,0.00,,,0.01,Wunderground v.1.15,2013-11-26 00:40:00,
2013-11-25 18:45:00,31.3,26.7,30.23,WSW,244,0.0,0.0,83,0.00,,,0.01,Wunderground v.1.15,2013-11-26 00:45:00,
2013-11-25 18:50:00,-999.9,-99.9,30.23,North,32767,-999.0,0.0,255,-99.99,,,0.01,Wunderground v.1.15,2013-11-26 00:50:00,
2013-11-25 18:55:00,-999.9,-99.9,30.23,North,32767,-999.0,0.0,255,-99.99,,,0.01,Wunderground v.1.15,2013-11-26 00:55:00,
2013-11-25 19:05:00,-999.9,-99.9,30.24,North,32767,-999.0,0.0,255,-99.99,,,0.01,Wunderground v.1.15,2013-11-26 01:05:00,
2013-11-25 19:15:00,-999.9,-99.9,30.23,North,32767,-999.0,0.0,255,-99.99,,,0.01,Wunderground v.1.15,2013-11-26 01:15:00,
2013-11-25 19:25:00,-999.9,-99.9,30.23,North,32767,-999.0,0.0,255,-99.99,,,0.01,Wunderground v.1.15,2013-11-26 01:25:00,
2013-11-25 19:30:00,-999.9,-99.9,30.23,North,32767,-999.0,0.0,255,-99.99,,,0.01,Wunderground v.1.15,2013-11-26 01:30:00,
2013-11-25 19:35:00,-999.9,-99.9,30.23,North,32767,-999.0,0.0,255,-99.99,,,0.01,Wunderground v.1.15,2013-11-26 01:35:00,
2013-11-25 19:40:00,-999.9,-99.9,30.23,North,32767,-999.0,0.0,255,-99.99,,,0.01,Wunderground v.1.15,2013-11-26 01:40:00,
2013-11-25 19:45:00,-999.9,-99.9,30.23,North,32767,-999.0,0.0,255,-99.99,,,0.01,Wunderground v.1.15,2013-11-26 01:45:00,
2013-11-25 19:50:00,-999.9,-99.9,30.23,North,32767,-999.0,0.0,255,-99.99,,,0.01,Wunderground v.1.15,2013-11-26 01:50:00,
2013-11-25 19:55:00,-999.9,-99.9,30.23,North,32767,-999.0,0.0,255,-99.99,,,0.01,Wunderground v.1.15,2013-11-26 01:55:00,
2013-11-25 20:05:00,-999.9,-99.9,30.23,North,32767,-999.0,0.0,255,-99.99,,,0.01,Wunderground v.1.15,2013-11-26 02:05:00,
2013-11-25 20:15:00,29.6,25.6,30.23,SSW,211,0.0,0.0,85,0.00,,,0.01,Wunderground v.1.15,2013-11-26 02:15:00,
2013-11-25 20:20:00,29.6,25.6,30.24,SSW,211,0.0,0.0,85,0.00,,,0.01,Wunderground v.1.15,2013-11-26 02:20:00,
2013-11-25 20:30:00,29.8,25.8,30.24,SSW,210,0.0,0.0,85,0.00,,,0.01,Wunderground v.1.15,2013-11-26 02:30:00,
2013-11-25 20:35:00,29.9,25.9,30.23,SSW,210,0.0,0.0,85,0.00,,,0.01,Wunderground v.1.15,2013-11-26 02:35:00,
2013-11-25 20:40:00,29.9,25.9,30.23,SSW,210,0.0,0.0,85,0.00,,,0.01,Wunderground v.1.15,2013-11-26 02:40:00,
2013-11-25 20:45:00,30.0,26.0,30.23,SSW,210,0.0,0.0,85,0.00,,,0.01,Wunderground v.1.15,2013-11-26 02:45:00,
2013-11-25 20:55:00,30.1,26.4,30.23,SSW,211,0.0,0.0,86,0.00,,,0.01,Wunderground v.1.15,2013-11-26 02:55:00,
2013-11-25 21:00:00,30.1,26.4,30.22,SSW,211,0.0,0.0,86,0.00,,,0.01,Wunderground v.1.15,2013-11-26 03:00:00,
2013-11-25 21:05:00,30.1,26.4,30.23,SSW,211,0.0,0.0,86,0.00,,,0.01,Wunderground v.1.15,2013-11-26 03:05:00,
2013-11-25 21:15:00,30.2,26.5,30.23,SSW,211,0.0,1.0,86,0.00,,,0.01,Wunderground v.1.15,2013-11-26 03:15:00,
2013-11-25 21:20:00,30.3,26.6,30.23,SSW,210,0.0,0.0,86,0.00,,,0.01,Wunderground v.1.15,2013-11-26 03:20:00,
2013-11-25 21:25:00,30.3,26.6,30.23,SW,222,0.0,2.0,86,0.00,,,0.01,Wunderground v.1.15,2013-11-26 03:25:00,
2013-11-25 21:30:00,30.3,26.6,30.23,SW,226,0.0,0.0,86,0.00,,,0.01,Wunderground v.1.15,2013-11-26 03:30:00,
2013-11-25 21:40:00,30.3,26.6,30.23,WSW,241,0.0,0.0,86,0.00,,,0.01,Wunderground v.1.15,2013-11-26 03:40:00,
2013-11-25 21:45:00,30.3,26.6,30.23,WSW,243,0.0,0.0,86,0.00,,,0.01,Wunderground v.1.15,2013-11-26 03:45:00,
2013-11-25 21:50:00,30.3,26.6,30.23,WSW,242,0.0,0.0,86,0.00,,,0.01,Wunderground v.1.15,2013-11-26 03:50:00,
2013-11-25 22:00:00,30.3,26.6,30.23,WSW,242,0.0,0.0,86,0.00,,,0.01,Wunderground v.1.15,2013-11-26 04:00:00,
2013-11-25 22:05:00,30.3,26.6,30.23,WSW,242,0.0,0.0,86,0.00,,,0.01,Wunderground v.1.15,2013-11-26 04:05:00,
2013-11-25 22:15:00,30.6,26.9,30.23,WSW,252,0.0,0.0,86,0.00,,,0.01,Wunderground v.1.15,2013-11-26 04:15:00,
2013-11-25 22:20:00,30.6,26.9,30.23,WSW,252,0.0,0.0,86,0.00,,,0.01,Wunderground v.1.15,2013-11-26 04:20:00,
2013-11-25 22:30:00,30.7,27.0,30.22,NNW,329,0.0,0.0,86,0.00,,,0.01,Wunderground v.1.15,2013-11-26 04:30:00,
2013-11-25 22:35:00,30.8,27.1,30.22,NW,317,0.0,0.0,86,0.00,,,0.01,Wunderground v.1.15,2013-11-26 04:35:00,
2013-11-25 22:40:00,30.8,27.1,30.22,NW,317,0.0,0.0,86,0.00,,,0.01,Wunderground v.1.15,2013-11-26 04:40:00,
2013-11-25 22:45:00,30.9,27.2,30.22,NW,317,0.0,0.0,86,0.00,,,0.01,Wunderground v.1.15,2013-11-26 04:45:00,
2013-11-25 22:55:00,30.9,26.9,30.21,NW,317,0.0,0.0,85,0.00,,,0.01,Wunderground v.1.15,2013-11-26 04:55:00,
2013-11-25 23:00:00,30.9,26.9,30.22,NW,317,0.0,0.0,85,0.00,,,0.01,Wunderground v.1.15,2013-11-26 05:00:00,
2013-11-25 23:05:00,30.9,27.2,30.21,NW,317,0.0,1.0,86,0.00,,,0.01,Wunderground v.1.15,2013-11-26 05:05:00,
2013-11-25 23:15:00,30.8,27.1,30.21,NW,317,0.0,0.0,86,0.00,,,0.01,Wunderground v.1.15,2013-11-26 05:15:00,
2013-11-25 23:20:00,30.8,27.1,30.21,NW,317,0.0,0.0,86,0.00,,,0.01,Wunderground v.1.15,2013-11-26 05:20:00,
2013-11-25 23:25:00,30.8,27.1,30.20,NW,317,0.0,1.0,86,0.00,,,0.01,Wunderground v.1.15,2013-11-26 05:25:00,
2013-11-25 23:35:00,30.7,27.0,30.20,NW,317,0.0,0.0,86,0.00,,,0.01,Wunderground v.1.15,2013-11-26 05:35:00,
2013-11-25 23:40:00,30.7,27.0,30.20,NW,317,0.0,0.0,86,0.00,,,0.01,Wunderground v.1.15,2013-11-26 05:40:00,
2013-11-25 23:45:00,30.6,26.9,30.19,NW,317,0.0,0.0,86,0.00,,,0.01,Wunderground v.1.15,2013-11-26 05:45:00,
2013-11-25 23:55:00,30.6,26.9,30.19,NW,317,0.0,0.0,86,0.00,,,0.01,Wunderground v.1.15,2013-11-26 05:55:00,